Location: W�rzburg
(49.7529°N, 9.8822°E)
Time: 05:06:01
(UTC+01:00)

N. Korean satellite - Visible Passes

Search period start: 22 January 2018 00:00
Search period end: 01 February 2018 00:00
Orbit: 458 x 515 km, 97.2° (Epoch: 21 January)

Date Brightness Start Highest point End Pass type
(mag) Time Alt. Az. Time Alt. Az. Time Alt. Az.
22 Jan 6.5 07:15:28 10° NNE 07:18:57 90° WSW 07:22:24 10° SSW visible
22 Jan 6.5 17:55:37 10° SSE 17:59:10 66° ENE 18:02:41 10° N visible
22 Jan 10.2 19:32:12 10° WSW 19:33:06 11° W 19:33:59 10° WNW visible
23 Jan 7.7 06:51:54 10° NNE 06:55:14 45° E 06:58:34 10° S visible
23 Jan 7.1 17:32:19 10° SE 17:35:35 35° ENE 17:38:48 10° N visible
23 Jan 9.5 19:06:35 10° SW 19:09:12 19° W 19:11:48 10° NW visible
24 Jan 9.1 06:28:33 10° NE 06:31:27 24° E 06:34:20 10° SSE visible
24 Jan 8.4 18:42:07 10° SSW 18:45:23 34° W 18:48:38 10° NNW visible
25 Jan 9.9 06:05:44 10° ENE 06:07:35 14° E 06:09:26 10° ESE visible
25 Jan 7.0 18:18:07 10° S 18:21:39 65° W 18:25:08 10° NNW visible
26 Jan 6.5 07:14:15 10° NNE 07:17:44 88° ESE 07:21:13 10° SSW visible
26 Jan 6.5 17:54:28 10° SSE 17:57:57 64° ENE 18:01:27 10° N visible
26 Jan 10.2 19:30:57 10° WSW 19:31:52 11° W 19:32:47 10° WNW visible
27 Jan 7.8 06:50:39 10° NNE 06:54:00 44° E 06:57:21 10° S visible
27 Jan 9.5 19:05:23 10° SW 19:07:59 19° W 19:10:34 10° NW visible
28 Jan 9.1 06:27:19 10° NE 06:30:13 24° E 06:33:05 10° SSE visible
28 Jan 8.3 18:40:55 10° SSW 18:44:08 34° W 18:47:23 10° NNW visible
29 Jan 10.0 06:04:30 10° ENE 06:06:19 14° E 06:08:09 10° ESE visible
29 Jan 6.9 18:16:54 10° S 18:20:23 67° WSW 18:23:52 10° NNW visible
30 Jan 6.5 07:12:58 10° NNE 07:16:28 86° ESE 07:19:58 10° SSW visible
30 Jan 6.5 17:53:15 10° SSE 17:56:42 62° ENE 18:00:09 10° N visible
30 Jan 10.2 19:29:39 10° WSW 19:30:36 11° W 19:31:35 10° WNW visible
31 Jan 7.9 06:49:23 10° NNE 06:52:44 43° E 06:56:06 10° S visible
31 Jan 9.5 19:04:06 10° SW 19:06:42 19° W 19:09:18 10° NW visible
